#timestamp,LO_Frequency,Hit,StdDev 
1507665615.6,286046983.3,N
1507665635.4,286046982.4,N
1507665655.2,286046982.3,N
1507665675.0,286046981.0,N
1507665676.0,286046981.0,Y
1507665695.8,286046993.9,P
1507665715.6,286046993.5,N
1507665735.5,286046995.7,N
1507665755.3,286046996.1,N
1507665775.1,286046996.1,N
1507665795.8,286046994.1,N
1507665815.7,286046992.1,N
1507665835.5,286046990.5,Y
1507665855.3,286046995.2,P
1507665875.2,286046996.0,P
1507665895.0,286046994.4,P
1507665895.9,286046994.4,Y
1507665915.8,286046999.9,P
1507665935.6,286047002.8,N
1507665955.4,286047001.5,N
1507665975.2,286047000.4,N
1507665995.1,286047001.4,N
1507665996.0,286047001.4,N
1507666015.8,286047001.4,N
1507666035.6,286047004.4,N
1507666055.5,286047004.9,N
1507666075.3,286047006.0,N
1507666095.1,286047004.5,N
1507666115.9,286047003.5,N
1507666135.7,286047004.1,N
1507666155.5,286047004.9,N
1507666175.4,286047005.4,N
1507666195.2,286047003.5,N
1507666215.0,286047005.3,N
1507666215.9,286047005.3,N
1507666235.8,286047003.3,N
1507666255.6,286047004.7,N
1507666275.4,286047004.5,N
1507666295.2,286047005.8,N
1507666315.1,286047007.5,N
1507666316.0,286047007.5,N
1507666335.8,286047006.9,N
1507666355.6,286047006.5,N
1507666375.5,286047007.7,N
1507666395.3,286047006.6,N
1507666415.1,286047005.9,N
1507666435.9,286047005.9,N
1507666455.7,286047006.0,N
1507666475.5,286047005.3,N
1507666495.4,286047003.2,N
1507666515.2,286047004.7,N
1507666535.0,286047006.5,Y
1507666535.9,286047006.5,P
1507666555.8,286047004.9,P
1507666575.6,286047007.1,P
1507666595.4,286047004.8,Y
1507666615.3,286046997.8,P
1507666635.1,286046993.4,N
1507666655.8,286046993.6,N
1507666675.7,286046993.8,N
1507666695.5,286046994.4,N
1507666715.3,286046993.9,N
1507666735.2,286046995.7,N
1507666755.9,286046994.9,N
1507666775.7,286046990.3,N
1507666795.5,286046995.5,N
1507666815.4,286046997.0,N
1507666835.2,286047001.2,N
1507666855.0,286047002.7,N
1507666855.9,286047002.7,N
1507666875.8,286047003.2,N
1507666895.6,286047002.9,N
1507666915.4,286047001.7,N
1507666935.3,286047004.4,N
1507666955.1,286047005.3,N
1507666956.0,286047005.3,N
1507666975.8,286047004.5,N
1507666995.7,286047003.3,N
1507667015.5,286047003.5,N
1507667035.3,286047004.6,N
1507667055.2,286047009.6,N
1507667075.9,286047007.8,N
1507667095.7,286047006.1,N
1507667115.5,286047005.2,N
1507667135.4,286047005.7,N
1507667155.2,286047006.9,N
1507667175.0,286047006.3,N
1507667175.9,286047006.3,N
1507667195.8,286047007.7,N
1507667215.6,286047008.5,N
1507667235.4,286047005.0,N
1507667255.3,286047003.0,N
1507667275.1,286047006.6,N
1507667276.0,286047006.6,N
1507667295.8,286047004.5,N
1507667315.7,286047005.2,N
1507667335.5,286047001.8,N
1507667355.3,286047005.6,N
1507667375.2,286047006.6,Y
1507667395.9,286047000.2,P
1507667415.7,286046998.6,N
1507667435.6,286047004.8,N
1507667455.4,286047004.7,N
1507667475.2,286047005.7,N
1507667495.1,286047008.6,Y
1507667496.0,286047008.6,P
1507667515.8,286047004.8,N
1507667535.6,286047001.7,N
1507667555.5,286047000.0,N
1507667575.3,286046999.0,N
1507667595.1,286046997.3,N
1507667615.8,286046991.9,N
1507667635.7,286046992.5,N
1507667655.5,286046990.5,N
1507667675.3,286046988.8,N
1507667695.2,286046994.8,N
1507667715.9,286046992.0,N
1507667735.7,286046991.1,N
1507667755.6,286046992.5,N
1507667775.4,286046994.6,N
1507667795.2,286046993.8,N
1507667815.1,286046990.5,N
1507667816.0,286046990.5,N
1507667835.8,286046994.6,N
1507667855.6,286046993.7,N
1507667875.5,286046991.9,N
1507667895.3,286046992.9,N
1507667915.1,286046990.8,N
1507667935.8,286046991.3,N
1507667955.7,286046988.5,N
1507667975.5,286046991.9,N
1507667995.3,286046994.8,N
1507668015.2,286046988.9,N
1507668035.9,286046990.0,N
1507668055.7,286046987.4,N
1507668075.6,286046986.3,N
1507668095.4,286046986.7,Y
1507668115.2,286046991.6,P
1507668135.1,286046992.5,P
1507668136.0,286046992.5,P
1507668155.8,286046995.9,Y
1507668175.6,286047002.2,P
1507668195.5,286047000.2,N
1507668215.3,286047001.8,N
1507668235.1,286047002.4,N
1507668255.9,286047004.4,N
1507668275.7,286047002.0,N
1507668295.5,286047005.0,N
1507668315.4,286047005.1,N
1507668335.2,286047005.6,N
1507668355.0,286047002.9,N
1507668355.9,286047002.9,N
1507668375.8,286047003.3,N
1507668395.6,286047005.6,N
1507668415.4,286047003.0,N
1507668435.2,286047003.3,N
1507668455.1,286047005.2,N
1507668456.0,286047005.2,N
1507668475.8,286047003.9,N
1507668495.6,286047001.4,N
1507668515.5,286047005.0,N
1507668535.3,286047004.6,N
1507668555.1,286047002.9,N
1507668575.9,286047001.4,N
1507668595.7,286047005.2,N
1507668615.5,286047004.5,N
1507668635.4,286047007.3,N
1507668655.2,286047005.1,N
1507668675.0,286047006.0,N
1507668675.9,286047006.0,N
1507668695.8,286047003.8,N
1507668715.6,286047001.4,N
1507668735.4,286047000.3,N
1507668755.2,286047000.4,N
1507668775.1,286047000.0,N
1507668776.0,286047000.0,N
1507668795.8,286046998.1,N
1507668815.6,286047001.4,N
1507668835.5,286047002.7,N
1507668855.3,286047004.3,N
1507668875.1,286047003.0,N
1507668895.9,286047002.9,N
1507668915.7,286047003.6,N
1507668935.5,286047004.3,N
1507668955.4,286047005.1,N
1507668975.2,286047005.3,N
1507668995.0,286047004.6,N
1507668995.9,286047004.6,N
1507669015.8,286047004.6,N
1507669035.6,286047004.4,N
1507669055.4,286047002.6,N
1507669075.3,286047004.4,N
1507669095.1,286046998.1,N
1507669096.0,286046998.1,N
1507669115.8,286046997.1,N
1507669135.7,286047002.5,N
1507669155.5,286047009.3,Y
1507669175.3,286047010.0,P
1507669195.2,286047014.5,P
